Time,TemperatureF,DewpointF,PressureIn,WindDirection,WindDirectionDegrees,WindSpeedMPH,WindSpeedGustMPH,Humidity,HourlyPrecipIn,Conditions,Clouds,dailyrainin,SoftwareType,DateUTC
2013-09-12 00:01:00,47.6,42.7,29.88,SSE,163,4.0,9.0,83,0.00,,,0.00,Wunderground v.1.15,2013-09-12 08:01:00,
2013-09-12 00:07:00,47.4,42.5,29.88,SW,214,3.0,9.0,83,0.00,,,0.00,Wunderground v.1.15,2013-09-12 08:07:00,
2013-09-12 00:12:00,47.4,42.5,29.89,SSW,194,3.0,9.0,83,0.00,,,0.00,Wunderground v.1.15,2013-09-12 08:12:00,
2013-09-12 00:18:00,47.3,43.0,29.88,South,186,5.0,10.0,85,0.00,,,0.00,Wunderground v.1.15,2013-09-12 08:18:00,
2013-09-12 00:24:00,47.3,42.7,29.88,SSW,208,6.0,9.0,84,0.00,,,0.00,Wunderground v.1.15,2013-09-12 08:24:00,
2013-09-12 00:30:00,47.3,43.0,29.88,South,173,5.0,9.0,85,0.00,,,0.00,Wunderground v.1.15,2013-09-12 08:30:00,
2013-09-12 00:36:00,47.3,42.7,29.88,SSW,197,5.0,9.0,84,0.00,,,0.00,Wunderground v.1.15,2013-09-12 08:36:00,
2013-09-12 00:42:00,47.4,42.8,29.89,SSW,199,5.0,9.0,84,0.00,,,0.00,Wunderground v.1.15,2013-09-12 08:42:00,
2013-09-12 00:47:00,47.5,42.6,29.89,SSW,211,4.0,9.0,83,0.00,,,0.00,Wunderground v.1.15,2013-09-12 08:47:00,
2013-09-12 00:53:00,47.4,42.5,29.89,SSE,164,4.0,9.0,83,0.00,,,0.00,Wunderground v.1.15,2013-09-12 08:53:00,
2013-09-12 01:00:00,47.6,42.7,29.89,SSW,210,4.0,4.0,83,0.00,,,0.00,Wunderground v.1.15,2013-09-12 09:00:00,
2013-09-12 01:05:00,47.8,42.3,29.89,SSE,165,3.0,7.0,81,0.00,,,0.00,Wunderground v.1.15,2013-09-12 09:05:00,
2013-09-12 01:11:00,47.8,42.3,29.89,SE,130,2.0,7.0,81,0.00,,,0.00,Wunderground v.1.15,2013-09-12 09:11:00,
2013-09-12 01:16:00,47.8,42.3,29.89,SSE,162,1.0,7.0,81,0.00,,,0.00,Wunderground v.1.15,2013-09-12 09:16:00,
2013-09-12 01:22:00,47.9,42.3,29.89,SSE,168,2.0,7.0,81,0.00,,,0.00,Wunderground v.1.15,2013-09-12 09:22:00,
2013-09-12 01:28:00,47.9,42.3,29.89,SSE,160,1.0,7.0,81,0.00,,,0.00,Wunderground v.1.15,2013-09-12 09:28:00,
2013-09-12 01:34:00,47.8,42.3,29.90,SE,145,1.0,7.0,81,0.00,,,0.00,Wunderground v.1.15,2013-09-12 09:34:00,
2013-09-12 01:39:00,47.7,42.5,29.90,South,177,1.0,1.0,82,0.00,,,0.00,Wunderground v.1.15,2013-09-12 09:39:00,
2013-09-12 01:45:00,47.7,42.5,29.90,SE,138,1.0,7.0,82,0.00,,,0.00,Wunderground v.1.15,2013-09-12 09:45:00,
2013-09-12 01:50:00,47.7,42.8,29.90,SSE,147,1.0,7.0,83,0.00,,,0.00,Wunderground v.1.15,2013-09-12 09:50:00,
2013-09-12 01:56:00,47.6,42.7,29.90,ESE,110,1.0,7.0,83,0.00,,,0.00,Wunderground v.1.15,2013-09-12 09:56:00,
2013-09-12 02:02:00,47.7,42.8,29.90,SSE,160,1.0,5.0,83,0.00,,,0.00,Wunderground v.1.15,2013-09-12 10:02:00,
2013-09-12 02:08:00,47.6,42.7,29.90,East,97,1.0,5.0,83,0.00,,,0.00,Wunderground v.1.15,2013-09-12 10:08:00,
2013-09-12 02:14:00,47.5,42.9,29.90,SE,137,1.0,5.0,84,0.00,,,0.00,Wunderground v.1.15,2013-09-12 10:14:00,
2013-09-12 02:20:00,47.4,42.8,29.90,ESE,120,0.0,5.0,84,0.00,,,0.00,Wunderground v.1.15,2013-09-12 10:20:00,
2013-09-12 02:26:00,47.1,42.8,29.90,ESE,120,0.0,5.0,85,0.00,,,0.00,Wunderground v.1.15,2013-09-12 10:26:00,
2013-09-12 02:31:00,47.0,42.7,29.90,SSE,166,0.0,5.0,85,0.00,,,0.00,Wunderground v.1.15,2013-09-12 10:31:00,
2013-09-12 02:37:00,47.4,42.5,29.90,ENE,70,1.0,5.0,83,0.00,,,0.00,Wunderground v.1.15,2013-09-12 10:37:00,
2013-09-12 02:43:00,48.2,42.6,29.90,East,86,2.0,7.0,81,0.00,,,0.00,Wunderground v.1.15,2013-09-12 10:43:00,
2013-09-12 02:49:00,48.6,42.7,29.90,East,87,2.0,5.0,80,0.00,,,0.00,Wunderground v.1.15,2013-09-12 10:49:00,
2013-09-12 02:55:00,48.8,42.6,29.90,East,83,2.0,5.0,79,0.00,,,0.00,Wunderground v.1.15,2013-09-12 10:55:00,
2013-09-12 03:00:00,48.7,42.5,29.91,East,93,1.0,5.0,79,0.00,,,0.00,Wunderground v.1.15,2013-09-12 11:00:00,
2013-09-12 03:06:00,48.6,42.7,29.91,ESE,110,0.0,5.0,80,0.00,,,0.00,Wunderground v.1.15,2013-09-12 11:06:00,
2013-09-12 03:11:00,48.3,42.4,29.91,ESE,110,0.0,5.0,80,0.00,,,0.00,Wunderground v.1.15,2013-09-12 11:11:00,
2013-09-12 03:17:00,47.9,42.3,29.91,ESE,110,0.0,5.0,81,0.00,,,0.00,Wunderground v.1.15,2013-09-12 11:17:00,
2013-09-12 03:23:00,47.9,42.3,29.91,ESE,106,0.0,5.0,81,0.00,,,0.00,Wunderground v.1.15,2013-09-12 11:23:00,
2013-09-12 03:29:00,47.9,42.0,29.91,East,100,0.0,5.0,80,0.00,,,0.00,Wunderground v.1.15,2013-09-12 11:29:00,
2013-09-12 03:35:00,48.0,42.1,29.91,East,100,0.0,5.0,80,0.00,,,0.00,Wunderground v.1.15,2013-09-12 11:35:00,
2013-09-12 03:40:00,47.9,42.0,29.91,WNW,300,0.0,5.0,80,0.00,,,0.00,Wunderground v.1.15,2013-09-12 11:40:00,
2013-09-12 03:46:00,47.6,42.1,29.91,NW,324,0.0,5.0,81,0.00,,,0.00,Wunderground v.1.15,2013-09-12 11:46:00,
2013-09-12 03:52:00,47.7,41.8,29.91,NNE,28,0.0,5.0,80,0.00,,,0.00,Wunderground v.1.15,2013-09-12 11:52:00,
2013-09-12 03:58:00,47.6,42.1,29.91,NNW,335,0.0,5.0,81,0.00,,,0.00,Wunderground v.1.15,2013-09-12 11:58:00,
2013-09-12 04:04:00,47.5,41.6,29.91,NNW,333,0.0,3.0,80,0.00,,,0.00,Wunderground v.1.15,2013-09-12 12:04:00,
2013-09-12 04:10:00,47.6,41.7,29.91,North,359,0.0,3.0,80,0.00,,,0.00,Wunderground v.1.15,2013-09-12 12:10:00,
2013-09-12 04:16:00,48.1,41.9,29.91,NE,41,1.0,4.0,79,0.00,,,0.00,Wunderground v.1.15,2013-09-12 12:16:00,
2013-09-12 04:22:00,49.1,42.2,29.92,NE,55,3.0,6.0,77,0.00,,,0.00,Wunderground v.1.15,2013-09-12 12:22:00,
2013-09-12 04:28:00,49.4,42.1,29.91,NE,46,3.0,6.0,76,0.00,,,0.00,Wunderground v.1.15,2013-09-12 12:28:00,
2013-09-12 04:34:00,49.4,42.1,29.92,NNE,18,1.0,3.0,76,0.00,,,0.00,Wunderground v.1.15,2013-09-12 12:34:00,
2013-09-12 04:39:00,49.1,42.2,29.92,North,4,0.0,3.0,77,0.00,,,0.00,Wunderground v.1.15,2013-09-12 12:39:00,
2013-09-12 04:45:00,48.9,42.0,29.92,East,79,0.0,3.0,77,0.00,,,0.00,Wunderground v.1.15,2013-09-12 12:45:00,
2013-09-12 04:51:00,49.1,42.2,29.92,ENE,65,1.0,3.0,77,0.00,,,0.00,Wunderground v.1.15,2013-09-12 12:51:00,
2013-09-12 04:56:00,49.0,42.1,29.92,East,97,2.0,8.0,77,0.00,,,0.00,Wunderground v.1.15,2013-09-12 12:56:00,
2013-09-12 05:01:00,48.9,42.3,29.92,East,90,2.0,6.0,78,0.00,,,0.00,Wunderground v.1.15,2013-09-12 13:01:00,
2013-09-12 05:07:00,48.6,42.4,29.92,NE,55,2.0,7.0,79,0.00,,,0.00,Wunderground v.1.15,2013-09-12 13:07:00,
2013-09-12 05:13:00,48.2,42.3,29.93,ESE,107,4.0,10.0,80,0.00,,,0.00,Wunderground v.1.15,2013-09-12 13:13:00,
2013-09-12 05:19:00,47.8,42.6,29.93,East,89,7.0,7.0,82,0.00,,,0.00,Wunderground v.1.15,2013-09-12 13:19:00,
2013-09-12 05:25:00,47.5,42.9,29.93,East,98,8.0,13.0,84,0.00,,,0.00,Wunderground v.1.15,2013-09-12 13:25:00,
2013-09-12 05:31:00,47.4,43.1,29.93,East,101,7.0,13.0,85,0.00,,,0.00,Wunderground v.1.15,2013-09-12 13:31:00,
2013-09-12 05:37:00,47.4,43.1,29.93,East,99,6.0,13.0,85,0.00,,,0.00,Wunderground v.1.15,2013-09-12 13:37:00,
2013-09-12 05:43:00,47.5,43.2,29.93,ENE,66,6.0,11.0,85,0.00,,,0.00,Wunderground v.1.15,2013-09-12 13:43:00,
2013-09-12 05:49:00,47.6,43.3,29.93,ESE,103,6.0,6.0,85,0.00,,,0.00,Wunderground v.1.15,2013-09-12 13:49:00,
2013-09-12 05:54:00,47.9,43.3,29.93,East,95,7.0,10.0,84,0.00,,,0.00,Wunderground v.1.15,2013-09-12 13:54:00,
2013-09-12 06:00:00,47.9,43.3,29.93,ESE,103,7.0,7.0,84,0.00,,,0.00,Wunderground v.1.15,2013-09-12 14:00:00,
2013-09-12 06:05:00,48.0,43.1,29.93,ENE,66,6.0,17.0,83,0.00,,,0.00,Wunderground v.1.15,2013-09-12 14:05:00,
2013-09-12 06:11:00,47.9,43.3,29.94,East,91,6.0,17.0,84,0.00,,,0.00,Wunderground v.1.15,2013-09-12 14:11:00,
2013-09-12 06:17:00,47.9,43.0,29.94,ENE,64,6.0,17.0,83,0.00,,,0.00,Wunderground v.1.15,2013-09-12 14:17:00,
2013-09-12 06:22:00,47.9,43.0,29.94,East,93,6.0,17.0,83,0.00,,,0.00,Wunderground v.1.15,2013-09-12 14:22:00,
2013-09-12 06:28:00,47.7,43.1,29.94,ESE,108,3.0,17.0,84,0.00,,,0.00,Wunderground v.1.15,2013-09-12 14:28:00,
2013-09-12 06:34:00,47.4,43.4,29.94,South,171,1.0,17.0,86,0.00,,,0.00,Wunderground v.1.15,2013-09-12 14:34:00,
2013-09-12 06:40:00,47.0,43.3,29.94,East,101,2.0,17.0,87,0.00,,,0.00,Wunderground v.1.15,2013-09-12 14:40:00,
2013-09-12 06:46:00,46.9,43.2,29.93,SE,133,2.0,17.0,87,0.00,,,0.00,Wunderground v.1.15,2013-09-12 14:46:00,
2013-09-12 06:51:00,47.0,43.3,29.94,SE,141,2.0,17.0,87,0.00,,,0.00,Wunderground v.1.15,2013-09-12 14:51:00,
2013-09-12 06:57:00,46.9,42.9,29.94,SE,127,3.0,17.0,86,0.00,,,0.00,Wunderground v.1.15,2013-09-12 14:57:00,
2013-09-12 07:02:00,46.9,42.6,29.94,SE,133,3.0,8.0,85,0.00,,,0.00,Wunderground v.1.15,2013-09-12 15:02:00,
2013-09-12 07:08:00,46.9,42.3,29.94,ESE,121,2.0,8.0,84,0.00,,,0.00,Wunderground v.1.15,2013-09-12 15:08:00,
2013-09-12 07:13:00,47.3,42.4,29.93,East,92,4.0,8.0,83,0.00,,,0.00,Wunderground v.1.15,2013-09-12 15:13:00,
2013-09-12 07:18:00,47.6,42.7,29.93,East,101,5.0,8.0,83,0.00,,,0.00,Wunderground v.1.15,2013-09-12 15:18:00,
2013-09-12 07:24:00,47.6,42.4,29.93,ENE,75,5.0,8.0,82,0.00,,,0.00,Wunderground v.1.15,2013-09-12 15:24:00,
2013-09-12 07:30:00,47.8,42.3,29.93,ENE,64,7.0,8.0,81,0.00,,,0.00,Wunderground v.1.15,2013-09-12 15:30:00,
2013-09-12 07:36:00,47.9,42.0,29.93,ENE,64,7.0,8.0,80,0.00,,,0.00,Wunderground v.1.15,2013-09-12 15:36:00,
2013-09-12 07:41:00,48.1,42.2,29.93,NE,48,4.0,8.0,80,0.00,,,0.00,Wunderground v.1.15,2013-09-12 15:41:00,
2013-09-12 07:47:00,48.0,42.1,29.93,East,100,4.0,8.0,80,0.00,,,0.00,Wunderground v.1.15,2013-09-12 15:47:00,
2013-09-12 07:52:00,48.1,41.9,29.93,East,88,6.0,13.0,79,0.00,,,0.00,Wunderground v.1.15,2013-09-12 15:52:00,
2013-09-12 07:58:00,48.0,42.1,29.93,East,81,7.0,13.0,80,0.00,,,0.00,Wunderground v.1.15,2013-09-12 15:58:00,
2013-09-12 08:04:00,47.7,42.2,29.93,East,91,6.0,15.0,81,0.00,,,0.00,Wunderground v.1.15,2013-09-12 16:04:00,
2013-09-12 08:10:00,47.6,42.1,29.93,ENE,67,6.0,15.0,81,0.00,,,0.00,Wunderground v.1.15,2013-09-12 16:10:00,
2013-09-12 08:16:00,47.6,42.1,29.93,ENE,60,4.0,15.0,81,0.00,,,0.00,Wunderground v.1.15,2013-09-12 16:16:00,
2013-09-12 08:21:00,47.7,42.2,29.93,ENE,63,4.0,15.0,81,0.00,,,0.00,Wunderground v.1.15,2013-09-12 16:21:00,
2013-09-12 08:27:00,47.7,41.8,29.93,East,92,3.0,15.0,80,0.00,,,0.00,Wunderground v.1.15,2013-09-12 16:27:00,
2013-09-12 08:33:00,47.7,41.8,29.93,East,79,1.0,15.0,80,0.00,,,0.00,Wunderground v.1.15,2013-09-12 16:33:00,
2013-09-12 08:39:00,47.8,41.9,29.93,ENE,75,1.0,15.0,80,0.00,,,0.00,Wunderground v.1.15,2013-09-12 16:39:00,
2013-09-12 08:45:00,47.8,41.9,29.93,NE,41,0.0,15.0,80,0.00,,,0.00,Wunderground v.1.15,2013-09-12 16:45:00,
2013-09-12 08:51:00,47.8,41.6,29.93,North,9,1.0,15.0,79,0.00,,,0.00,Wunderground v.1.15,2013-09-12 16:51:00,
2013-09-12 08:56:00,47.9,41.7,29.93,NNE,33,1.0,15.0,79,0.00,,,0.00,Wunderground v.1.15,2013-09-12 16:56:00,
2013-09-12 09:01:00,47.8,41.6,29.93,ENE,58,0.0,7.0,79,0.00,,,0.00,Wunderground v.1.15,2013-09-12 17:01:00,
2013-09-12 09:07:00,47.8,41.6,29.94,NE,56,1.0,7.0,79,0.00,,,0.00,Wunderground v.1.15,2013-09-12 17:07:00,
2013-09-12 09:13:00,47.9,41.4,29.94,ENE,74,1.0,7.0,78,0.00,,,0.00,Wunderground v.1.15,2013-09-12 17:13:00,
2013-09-12 09:19:00,48.0,41.1,29.94,NE,52,2.0,2.0,77,0.00,,,0.00,Wunderground v.1.15,2013-09-12 17:19:00,
2013-09-12 09:25:00,48.2,41.3,29.94,ENE,58,2.0,7.0,77,0.00,,,0.00,Wunderground v.1.15,2013-09-12 17:25:00,
2013-09-12 09:31:00,48.3,41.4,29.94,ENE,68,3.0,7.0,77,0.00,,,0.00,Wunderground v.1.15,2013-09-12 17:31:00,
2013-09-12 09:37:00,48.2,41.3,29.94,ENE,75,2.0,7.0,77,0.00,,,0.00,Wunderground v.1.15,2013-09-12 17:37:00,
2013-09-12 09:43:00,48.2,41.3,29.95,East,83,3.0,7.0,77,0.00,,,0.00,Wunderground v.1.15,2013-09-12 17:43:00,
2013-09-12 09:49:00,48.2,41.7,29.95,ENE,62,4.0,7.0,78,0.00,,,0.00,Wunderground v.1.15,2013-09-12 17:49:00,
2013-09-12 09:55:00,48.3,42.1,29.95,ESE,114,7.0,10.0,79,0.00,,,0.00,Wunderground v.1.15,2013-09-12 17:55:00,
2013-09-12 10:01:00,48.2,42.6,29.95,ESE,113,8.0,17.0,81,0.00,,,0.00,Wunderground v.1.15,2013-09-12 18:01:00,
2013-09-12 10:07:00,48.2,42.3,29.95,East,92,8.0,17.0,80,0.00,,,0.00,Wunderground v.1.15,2013-09-12 18:07:00,
2013-09-12 10:13:00,48.1,42.5,29.95,East,86,9.0,17.0,81,0.00,,,0.00,Wunderground v.1.15,2013-09-12 18:13:00,
2013-09-12 10:18:00,48.2,42.3,29.95,ENE,58,9.0,17.0,80,0.00,,,0.00,Wunderground v.1.15,2013-09-12 18:18:00,
2013-09-12 10:24:00,48.3,42.7,29.95,ESE,109,8.0,17.0,81,0.00,,,0.00,Wunderground v.1.15,2013-09-12 18:24:00,
2013-09-12 10:30:00,48.3,42.7,29.95,East,79,7.0,17.0,81,0.00,,,0.00,Wunderground v.1.15,2013-09-12 18:30:00,
2013-09-12 10:35:00,48.3,42.7,29.95,ESE,116,6.0,17.0,81,0.00,,,0.00,Wunderground v.1.15,2013-09-12 18:35:00,
2013-09-12 10:41:00,48.2,43.0,29.95,East,80,6.0,17.0,82,0.00,,,0.00,Wunderground v.1.15,2013-09-12 18:41:00,
2013-09-12 10:46:00,48.3,43.1,29.95,East,98,7.0,17.0,82,0.00,,,0.00,Wunderground v.1.15,2013-09-12 18:46:00,
2013-09-12 10:52:00,48.4,43.2,29.95,East,91,7.0,17.0,82,0.00,,,0.00,Wunderground v.1.15,2013-09-12 18:52:00,
2013-09-12 10:58:00,48.3,43.4,29.95,East,93,7.0,17.0,83,0.00,,,0.00,Wunderground v.1.15,2013-09-12 18:58:00,
2013-09-12 11:03:00,48.2,43.3,29.95,SE,129,5.0,16.0,83,0.00,,,0.00,Wunderground v.1.15,2013-09-12 19:03:00,
2013-09-12 11:09:00,48.2,43.6,29.95,East,93,3.0,3.0,84,0.00,,,0.00,Wunderground v.1.15,2013-09-12 19:09:00,
2013-09-12 11:15:00,48.3,44.0,29.95,ENE,76,2.0,16.0,85,0.00,,,0.00,Wunderground v.1.15,2013-09-12 19:15:00,
2013-09-12 11:20:00,48.3,44.0,29.95,ENE,71,2.0,3.0,85,0.00,,,0.00,Wunderground v.1.15,2013-09-12 19:20:00,
2013-09-12 11:25:00,48.3,44.0,29.95,East,95,2.0,16.0,85,0.00,,,0.00,Wunderground v.1.15,2013-09-12 19:25:00,
2013-09-12 11:31:00,48.2,44.2,29.95,ENE,62,3.0,16.0,86,0.00,,,0.00,Wunderground v.1.15,2013-09-12 19:31:00,
2013-09-12 11:37:00,48.2,44.2,29.95,NE,52,2.0,16.0,86,0.00,,,0.00,Wunderground v.1.15,2013-09-12 19:37:00,
2013-09-12 11:43:00,48.3,44.6,29.95,NNW,346,1.0,16.0,87,0.00,,,0.00,Wunderground v.1.15,2013-09-12 19:43:00,
2013-09-12 11:49:00,48.5,44.5,29.95,NNE,18,0.0,16.0,86,0.00,,,0.00,Wunderground v.1.15,2013-09-12 19:49:00,
2013-09-12 11:54:00,48.6,44.6,29.95,NNE,23,0.0,16.0,86,0.00,,,0.00,Wunderground v.1.15,2013-09-12 19:54:00,
2013-09-12 11:59:00,48.7,43.5,29.95,NNE,29,0.0,2.0,82,0.00,,,0.00,Wunderground v.1.15,2013-09-12 19:59:00,
2013-09-12 12:05:00,48.9,43.3,29.95,NE,36,1.0,2.0,81,0.00,,,0.00,Wunderground v.1.15,2013-09-12 20:05:00,
2013-09-12 12:11:00,49.1,43.2,29.95,NE,52,1.0,4.0,80,0.00,,,0.00,Wunderground v.1.15,2013-09-12 20:11:00,
2013-09-12 12:17:00,49.3,43.4,29.95,ENE,63,2.0,7.0,80,0.00,,,0.00,Wunderground v.1.15,2013-09-12 20:17:00,
2013-09-12 12:23:00,49.4,43.5,29.95,NE,42,3.0,5.0,80,0.00,,,0.00,Wunderground v.1.15,2013-09-12 20:23:00,
2013-09-12 12:29:00,49.6,43.7,29.95,ENE,66,3.0,3.0,80,0.00,,,0.00,Wunderground v.1.15,2013-09-12 20:29:00,
2013-09-12 12:35:00,49.7,43.5,29.95,NNW,345,3.0,8.0,79,0.00,,,0.00,Wunderground v.1.15,2013-09-12 20:35:00,
2013-09-12 12:40:00,49.9,44.0,29.95,NE,35,3.0,3.0,80,0.00,,,0.00,Wunderground v.1.15,2013-09-12 20:40:00,
2013-09-12 12:46:00,50.0,43.7,29.95,NNE,33,2.0,4.0,79,0.00,,,0.00,Wunderground v.1.15,2013-09-12 20:46:00,
2013-09-12 12:52:00,50.0,43.7,29.94,NE,39,3.0,5.0,79,0.00,,,0.00,Wunderground v.1.15,2013-09-12 20:52:00,
2013-09-12 12:58:00,50.0,43.4,29.94,NE,41,3.0,5.0,78,0.00,,,0.00,Wunderground v.1.15,2013-09-12 20:58:00,
2013-09-12 13:03:00,50.1,43.5,29.94,NE,34,4.0,9.0,78,0.00,,,0.00,Wunderground v.1.15,2013-09-12 21:03:00,
2013-09-12 13:08:00,50.2,43.6,29.94,ENE,58,5.0,9.0,78,0.00,,,0.00,Wunderground v.1.15,2013-09-12 21:08:00,
2013-09-12 13:14:00,50.3,43.7,29.94,NNE,31,4.0,9.0,78,0.00,,,0.00,Wunderground v.1.15,2013-09-12 21:14:00,
2013-09-12 13:20:00,50.4,43.8,29.94,NE,43,6.0,9.0,78,0.00,,,0.00,Wunderground v.1.15,2013-09-12 21:20:00,
2013-09-12 13:26:00,50.3,43.4,29.94,NE,50,8.0,11.0,77,0.00,,,0.00,Wunderground v.1.15,2013-09-12 21:26:00,
2013-09-12 13:32:00,50.1,44.2,29.94,ENE,75,8.0,9.0,80,0.00,,,0.00,Wunderground v.1.15,2013-09-12 21:32:00,
2013-09-12 13:37:00,49.8,43.5,29.94,East,86,7.0,9.0,79,0.00,,,0.00,Wunderground v.1.15,2013-09-12 21:37:00,
2013-09-12 13:43:00,49.7,43.5,29.94,ESE,104,7.0,11.0,79,0.00,,,0.00,Wunderground v.1.15,2013-09-12 21:43:00,
2013-09-12 13:49:00,49.9,43.6,29.94,East,99,7.0,7.0,79,0.00,,,0.00,Wunderground v.1.15,2013-09-12 21:49:00,
2013-09-12 13:54:00,50.1,44.2,29.93,East,87,6.0,9.0,80,0.00,,,0.00,Wunderground v.1.15,2013-09-12 21:54:00,
2013-09-12 14:00:00,50.3,44.7,29.93,East,83,4.0,14.0,81,0.00,,,0.00,Wunderground v.1.15,2013-09-12 22:00:00,
2013-09-12 14:05:00,50.3,45.0,29.93,ESE,118,4.0,14.0,82,0.00,,,0.00,Wunderground v.1.15,2013-09-12 22:05:00,
2013-09-12 14:11:00,50.3,45.3,29.93,ESE,104,3.0,14.0,83,0.00,,,0.00,Wunderground v.1.15,2013-09-12 22:11:00,
2013-09-12 14:16:00,50.2,45.6,29.93,East,95,3.0,14.0,84,0.00,,,0.00,Wunderground v.1.15,2013-09-12 22:16:00,
2013-09-12 14:22:00,50.1,45.5,29.93,ENE,73,2.0,14.0,84,0.00,,,0.00,Wunderground v.1.15,2013-09-12 22:22:00,
2013-09-12 14:28:00,50.2,45.9,29.93,ENE,70,3.0,14.0,85,0.00,,,0.00,Wunderground v.1.15,2013-09-12 22:28:00,
2013-09-12 14:34:00,50.5,45.8,29.93,East,88,3.0,14.0,84,0.00,,,0.00,Wunderground v.1.15,2013-09-12 22:34:00,
2013-09-12 14:39:00,50.6,45.3,29.93,ENE,65,3.0,14.0,82,0.00,,,0.00,Wunderground v.1.15,2013-09-12 22:39:00,
2013-09-12 14:45:00,50.8,45.5,29.92,NE,56,3.0,14.0,82,0.00,,,0.00,Wunderground v.1.15,2013-09-12 22:45:00,
2013-09-12 14:51:00,51.0,45.0,29.92,NE,45,3.0,14.0,80,0.00,,,0.00,Wunderground v.1.15,2013-09-12 22:51:00,
2013-09-12 14:57:00,50.9,44.9,29.92,NE,53,3.0,14.0,80,0.00,,,0.00,Wunderground v.1.15,2013-09-12 22:57:00,
2013-09-12 15:03:00,50.8,45.2,29.92,NE,50,3.0,7.0,81,0.00,,,0.00,Wunderground v.1.15,2013-09-12 23:03:00,
2013-09-12 15:09:00,50.7,44.8,29.92,NE,54,3.0,3.0,80,0.00,,,0.00,Wunderground v.1.15,2013-09-12 23:09:00,
2013-09-12 15:15:00,50.8,44.9,29.92,North,4,3.0,7.0,80,0.00,,,0.00,Wunderground v.1.15,2013-09-12 23:15:00,
2013-09-12 15:20:00,50.8,44.9,29.92,NNE,25,3.0,4.0,80,0.00,,,0.00,Wunderground v.1.15,2013-09-12 23:20:00,
2013-09-12 15:26:00,50.8,44.9,29.91,NNE,16,2.0,7.0,80,0.00,,,0.00,Wunderground v.1.15,2013-09-12 23:26:00,
2013-09-12 15:31:00,50.8,44.9,29.91,ENE,64,2.0,4.0,80,0.00,,,0.00,Wunderground v.1.15,2013-09-12 23:31:00,
2013-09-12 15:37:00,50.9,44.9,29.91,North,4,2.0,7.0,80,0.00,,,0.00,Wunderground v.1.15,2013-09-12 23:37:00,
2013-09-12 15:43:00,50.9,44.6,29.91,NE,43,2.0,7.0,79,0.00,,,0.00,Wunderground v.1.15,2013-09-12 23:43:00,
2013-09-12 15:49:00,50.9,44.6,29.91,North,8,1.0,1.0,79,0.00,,,0.00,Wunderground v.1.15,2013-09-12 23:49:00,
2013-09-12 15:54:00,51.0,44.4,29.91,North,10,0.0,7.0,78,0.00,,,0.00,Wunderground v.1.15,2013-09-12 23:54:00,
2013-09-12 15:59:00,51.1,44.1,29.91,NNE,26,1.0,1.0,77,0.00,,,0.00,Wunderground v.1.15,2013-09-12 23:59:00,
2013-09-12 16:05:00,51.0,44.0,29.91,North,349,1.0,4.0,77,0.00,,,0.00,Wunderground v.1.15,2013-09-13 00:05:00,
2013-09-12 16:11:00,50.8,43.8,29.91,NNW,341,2.0,4.0,77,0.00,,,0.00,Wunderground v.1.15,2013-09-13 00:11:00,
2013-09-12 16:17:00,50.6,43.7,29.91,NNW,337,3.0,4.0,77,0.00,,,0.00,Wunderground v.1.15,2013-09-13 00:17:00,
2013-09-12 16:23:00,50.5,43.6,29.90,NNE,30,3.0,4.0,77,0.00,,,0.00,Wunderground v.1.15,2013-09-13 00:23:00,
2013-09-12 16:28:00,50.5,43.6,29.90,NE,50,3.0,4.0,77,0.00,,,0.00,Wunderground v.1.15,2013-09-13 00:28:00,
2013-09-12 16:34:00,50.4,43.8,29.90,ENE,62,3.0,4.0,78,0.00,,,0.00,Wunderground v.1.15,2013-09-13 00:34:00,
2013-09-12 16:39:00,50.4,43.5,29.90,ENE,58,4.0,5.0,77,0.00,,,0.00,Wunderground v.1.15,2013-09-13 00:39:00,
2013-09-12 16:45:00,50.6,43.7,29.90,ENE,73,6.0,13.0,77,0.00,,,0.00,Wunderground v.1.15,2013-09-13 00:45:00,
2013-09-12 16:50:00,50.7,43.8,29.90,NE,51,8.0,10.0,77,0.00,,,0.00,Wunderground v.1.15,2013-09-13 00:50:00,
2013-09-12 16:56:00,50.8,43.8,29.89,East,81,8.0,11.0,77,0.00,,,0.00,Wunderground v.1.15,2013-09-13 00:56:00,
2013-09-12 17:02:00,50.9,43.9,29.89,ENE,61,7.0,13.0,77,0.00,,,0.00,Wunderground v.1.15,2013-09-13 01:02:00,
2013-09-12 17:08:00,51.0,44.4,29.89,ENE,69,6.0,13.0,78,0.00,,,0.00,Wunderground v.1.15,2013-09-13 01:08:00,
2013-09-12 17:14:00,50.9,44.3,29.89,NE,34,4.0,13.0,78,0.00,,,0.00,Wunderground v.1.15,2013-09-13 01:14:00,
2013-09-12 17:20:00,50.8,44.2,29.88,NE,44,3.0,13.0,78,0.00,,,0.00,Wunderground v.1.15,2013-09-13 01:20:00,
2013-09-12 17:25:00,50.8,44.2,29.88,NE,52,4.0,13.0,78,0.00,,,0.00,Wunderground v.1.15,2013-09-13 01:25:00,
2013-09-12 17:30:00,50.7,44.1,29.88,NE,38,4.0,5.0,78,0.00,,,0.00,Wunderground v.1.15,2013-09-13 01:30:00,
2013-09-12 17:35:00,50.6,44.3,29.88,NNE,25,2.0,13.0,79,0.00,,,0.00,Wunderground v.1.15,2013-09-13 01:35:00,
2013-09-12 17:40:00,50.5,43.9,29.88,NE,39,1.0,13.0,78,0.00,,,0.00,Wunderground v.1.15,2013-09-13 01:40:00,
2013-09-12 17:46:00,50.5,43.9,29.87,NNE,31,1.0,13.0,78,0.00,,,0.00,Wunderground v.1.15,2013-09-13 01:46:00,
2013-09-12 17:51:00,50.4,43.8,29.87,ENE,69,2.0,13.0,78,0.00,,,0.00,Wunderground v.1.15,2013-09-13 01:51:00,
2013-09-12 17:57:00,50.4,43.8,29.87,ENE,73,4.0,13.0,78,0.00,,,0.00,Wunderground v.1.15,2013-09-13 01:57:00,
2013-09-12 18:03:00,50.3,43.7,29.87,ENE,66,5.0,13.0,78,0.00,,,0.00,Wunderground v.1.15,2013-09-13 02:03:00,
2013-09-12 18:09:00,50.2,43.9,29.87,ENE,66,5.0,5.0,79,0.00,,,0.00,Wunderground v.1.15,2013-09-13 02:09:00,
2013-09-12 18:15:00,50.1,44.2,29.88,ENE,74,4.0,13.0,80,0.00,,,0.00,Wunderground v.1.15,2013-09-13 02:15:00,
2013-09-12 18:20:00,49.9,44.0,29.88,ENE,68,5.0,13.0,80,0.00,,,0.00,Wunderground v.1.15,2013-09-13 02:20:00,
2013-09-12 18:25:00,50.2,43.6,29.87,East,91,7.0,13.0,78,0.00,,,0.00,Wunderground v.1.15,2013-09-13 02:25:00,
2013-09-12 18:31:00,50.3,44.0,29.87,ENE,68,6.0,13.0,79,0.00,,,0.00,Wunderground v.1.15,2013-09-13 02:31:00,
2013-09-12 18:36:00,50.0,44.4,29.87,East,96,3.0,13.0,81,0.00,,,0.00,Wunderground v.1.15,2013-09-13 02:36:00,
2013-09-12 18:42:00,49.8,44.5,29.87,East,81,1.0,13.0,82,0.00,,,0.00,Wunderground v.1.15,2013-09-13 02:42:00,
2013-09-12 18:47:00,49.7,44.7,29.87,ESE,112,0.0,13.0,83,0.00,,,0.00,Wunderground v.1.15,2013-09-13 02:47:00,
2013-09-12 18:52:00,49.6,44.3,29.87,ESE,102,0.0,13.0,82,0.00,,,0.00,Wunderground v.1.15,2013-09-13 02:52:00,
2013-09-12 18:58:00,49.6,44.3,29.86,ENE,66,0.0,13.0,82,0.00,,,0.00,Wunderground v.1.15,2013-09-13 02:58:00,
2013-09-12 19:03:00,49.6,44.6,29.86,NE,56,0.0,2.0,83,0.00,,,0.00,Wunderground v.1.15,2013-09-13 03:03:00,
2013-09-12 19:09:00,49.6,44.3,29.86,NNE,16,0.0,2.0,82,0.00,,,0.00,Wunderground v.1.15,2013-09-13 03:09:00,
2013-09-12 19:14:00,49.6,44.3,29.86,North,9,0.0,2.0,82,0.00,,,0.00,Wunderground v.1.15,2013-09-13 03:14:00,
2013-09-12 19:20:00,49.6,44.0,29.86,ENE,72,0.0,2.0,81,0.00,,,0.00,Wunderground v.1.15,2013-09-13 03:20:00,
2013-09-12 19:26:00,49.6,44.6,29.86,ENE,72,0.0,2.0,83,0.00,,,0.00,Wunderground v.1.15,2013-09-13 03:26:00,
2013-09-12 19:32:00,49.6,44.3,29.85,NE,52,0.0,2.0,82,0.00,,,0.00,Wunderground v.1.15,2013-09-13 03:32:00,
2013-09-12 19:37:00,49.6,44.3,29.85,NE,45,1.0,2.0,82,0.00,,,0.00,Wunderground v.1.15,2013-09-13 03:37:00,
2013-09-12 19:43:00,49.5,44.6,29.84,NNE,12,1.0,2.0,83,0.00,,,0.00,Wunderground v.1.15,2013-09-13 03:43:00,
2013-09-12 19:48:00,49.4,44.1,29.84,NNW,347,1.0,2.0,82,0.00,,,0.00,Wunderground v.1.15,2013-09-13 03:48:00,
2013-09-12 19:54:00,49.5,44.2,29.84,NNW,327,1.0,3.0,82,0.00,,,0.00,Wunderground v.1.15,2013-09-13 03:54:00,
2013-09-12 19:59:00,49.6,44.0,29.84,NE,52,2.0,9.0,81,0.00,,,0.00,Wunderground v.1.15,2013-09-13 03:59:00,
2013-09-12 20:01:00,49.6,44.0,29.84,NNE,27,3.0,9.0,81,0.00,,,0.00,Wunderground v.1.15,2013-09-13 04:01:00,
2013-09-12 20:02:00,49.6,44.0,29.84,ENE,63,3.0,9.0,81,0.00,,,0.00,Wunderground v.1.15,2013-09-13 04:02:00,
2013-09-12 20:03:00,49.6,44.0,29.84,NE,46,4.0,9.0,81,0.00,,,0.00,Wunderground v.1.15,2013-09-13 04:03:00,
2013-09-12 20:04:00,49.6,44.0,29.84,NNE,12,4.0,11.0,81,0.00,,,0.00,Wunderground v.1.15,2013-09-13 04:04:00,
2013-09-12 20:09:00,49.6,44.3,29.85,NE,56,6.0,10.0,82,0.00,,,0.00,Wunderground v.1.15,2013-09-13 04:09:00,
2013-09-12 20:11:00,49.6,44.3,29.84,NNE,32,6.0,11.0,82,0.00,,,0.00,Wunderground v.1.15,2013-09-13 04:11:00,
2013-09-12 20:15:00,49.5,44.2,29.85,NNE,20,6.0,11.0,82,0.00,,,0.00,Wunderground v.1.15,2013-09-13 04:15:00,
2013-09-12 20:20:00,49.6,44.3,29.85,North,4,6.0,9.0,82,0.00,,,0.00,Wunderground v.1.15,2013-09-13 04:20:00,
2013-09-12 20:25:00,49.6,44.0,29.84,NE,43,6.0,9.0,81,0.00,,,0.00,Wunderground v.1.15,2013-09-13 04:25:00,
2013-09-12 20:31:00,49.7,44.1,29.84,NNE,21,6.0,11.0,81,0.00,,,0.00,Wunderground v.1.15,2013-09-13 04:31:00,
2013-09-12 20:37:00,49.9,44.0,29.84,NE,49,6.0,11.0,80,0.00,,,0.00,Wunderground v.1.15,2013-09-13 04:37:00,
2013-09-12 20:43:00,49.8,43.9,29.84,NNW,330,6.0,9.0,80,0.00,,,0.00,Wunderground v.1.15,2013-09-13 04:43:00,
2013-09-12 20:49:00,49.9,44.3,29.83,North,8,5.0,9.0,81,0.00,,,0.00,Wunderground v.1.15,2013-09-13 04:49:00,
2013-09-12 20:55:00,49.8,44.2,29.83,NNE,14,6.0,9.0,81,0.00,,,0.00,Wunderground v.1.15,2013-09-13 04:55:00,
2013-09-12 21:01:00,49.9,44.0,29.83,ENE,58,6.0,16.0,80,0.00,,,0.00,Wunderground v.1.15,2013-09-13 05:01:00,
2013-09-12 21:07:00,50.0,44.1,29.83,NNW,345,6.0,16.0,80,0.00,,,0.00,Wunderground v.1.15,2013-09-13 05:07:00,
2013-09-12 21:13:00,50.2,43.9,29.83,NE,54,4.0,16.0,79,0.00,,,0.00,Wunderground v.1.15,2013-09-13 05:13:00,
2013-09-12 21:19:00,50.6,44.0,29.83,NNE,12,5.0,16.0,78,0.00,,,0.00,Wunderground v.1.15,2013-09-13 05:19:00,
2013-09-12 21:25:00,50.9,44.3,29.83,NNW,339,6.0,16.0,78,0.00,,,0.00,Wunderground v.1.15,2013-09-13 05:25:00,
2013-09-12 21:31:00,50.8,44.2,29.83,NW,318,6.0,16.0,78,0.00,,,0.00,Wunderground v.1.15,2013-09-13 05:31:00,
2013-09-12 21:37:00,50.8,44.2,29.82,NE,37,6.0,16.0,78,0.00,,,0.00,Wunderground v.1.15,2013-09-13 05:37:00,
2013-09-12 21:43:00,50.9,44.3,29.82,NE,42,6.0,16.0,78,0.00,,,0.00,Wunderground v.1.15,2013-09-13 05:43:00,
2013-09-12 21:49:00,50.8,44.2,29.82,NNE,29,6.0,6.0,78,0.00,,,0.00,Wunderground v.1.15,2013-09-13 05:49:00,
2013-09-12 21:55:00,50.8,44.2,29.83,NNE,12,6.0,16.0,78,0.00,,,0.00,Wunderground v.1.15,2013-09-13 05:55:00,
2013-09-12 22:01:00,50.9,43.9,29.82,NW,323,6.0,16.0,77,0.00,,,0.00,Wunderground v.1.15,2013-09-13 06:01:00,
2013-09-12 22:07:00,50.9,44.3,29.82,NE,54,6.0,16.0,78,0.00,,,0.00,Wunderground v.1.15,2013-09-13 06:07:00,
2013-09-12 22:12:00,50.8,44.2,29.82,NE,39,6.0,16.0,78,0.00,,,0.00,Wunderground v.1.15,2013-09-13 06:12:00,
2013-09-12 22:18:00,50.4,44.5,29.82,NE,39,6.0,16.0,80,0.00,,,0.00,Wunderground v.1.15,2013-09-13 06:18:00,
2013-09-12 22:23:00,50.3,44.4,29.82,NNE,26,4.0,16.0,80,0.00,,,0.00,Wunderground v.1.15,2013-09-13 06:23:00,
2013-09-12 22:28:00,50.3,44.4,29.82,NNW,327,4.0,16.0,80,0.00,,,0.00,Wunderground v.1.15,2013-09-13 06:28:00,
2013-09-12 22:34:00,50.2,44.6,29.83,NNW,333,4.0,16.0,81,0.00,,,0.00,Wunderground v.1.15,2013-09-13 06:34:00,
2013-09-12 22:39:00,50.1,44.8,29.83,NNE,30,3.0,3.0,82,0.00,,,0.00,Wunderground v.1.15,2013-09-13 06:39:00,
2013-09-12 22:45:00,50.1,44.8,29.82,NW,305,2.0,16.0,82,0.00,,,0.00,Wunderground v.1.15,2013-09-13 06:45:00,
2013-09-12 22:51:00,50.2,44.6,29.82,NNE,26,2.0,16.0,81,0.00,,,0.00,Wunderground v.1.15,2013-09-13 06:51:00,
2013-09-12 22:57:00,50.3,44.4,29.82,NNE,19,1.0,16.0,80,0.00,,,0.00,Wunderground v.1.15,2013-09-13 06:57:00,
2013-09-12 23:02:00,50.5,44.2,29.82,NNE,20,1.0,7.0,79,0.00,,,0.00,Wunderground v.1.15,2013-09-13 07:02:00,
2013-09-12 23:07:00,50.6,44.3,29.82,NNE,25,2.0,7.0,79,0.00,,,0.00,Wunderground v.1.15,2013-09-13 07:07:00,
2013-09-12 23:13:00,50.8,44.2,29.82,North,4,2.0,7.0,78,0.00,,,0.00,Wunderground v.1.15,2013-09-13 07:13:00,
2013-09-12 23:19:00,50.8,44.2,29.82,NW,312,2.0,2.0,78,0.00,,,0.00,Wunderground v.1.15,2013-09-13 07:19:00,
2013-09-12 23:25:00,50.9,43.9,29.82,NNE,21,2.0,7.0,77,0.00,,,0.00,Wunderground v.1.15,2013-09-13 07:25:00,
2013-09-12 23:31:00,51.0,43.7,29.82,ENE,60,2.0,7.0,76,0.00,,,0.00,Wunderground v.1.15,2013-09-13 07:31:00,
2013-09-12 23:37:00,51.2,43.9,29.82,ENE,62,2.0,7.0,76,0.00,,,0.00,Wunderground v.1.15,2013-09-13 07:37:00,
2013-09-12 23:43:00,51.3,44.0,29.82,NE,40,1.0,7.0,76,0.00,,,0.00,Wunderground v.1.15,2013-09-13 07:43:00,
2013-09-12 23:49:00,51.4,44.1,29.82,NNE,28,2.0,2.0,76,0.00,,,0.00,Wunderground v.1.15,2013-09-13 07:49:00,
2013-09-12 23:54:00,51.4,43.7,29.82,NE,49,1.0,7.0,75,0.00,,,0.00,Wunderground v.1.15,2013-09-13 07:54:00,